Location: Bailleul
(50.3375°N, 2.8513°E)
Time: 05:11:16
(UTC+00:00)

Cosmos 405 Rocket - Pass Details

Date: 19 April 2021
Orbit: 489 x 553 km, 81.3° (Epoch: 09 May)

Event Time Altitude Azimuth Distance (km) Brightness Sun altitude
Rises 19:14:24 0° 356° (N) 2,736 6.8 -4.5°
Reaches altitude 10° 19:16:50 10° 8° (N) 1,831 5.7 -4.8°
Maximum altitude 19:20:20 28° 68° (ENE) 1,049 3.9 -5.4°
Drops below altitude 10° 19:23:46 10° 128° (SE) 1,791 4.8 -5.8°
Enters shadow 19:24:35 - 134° (SE) 2,085 5.2 -6.0°
